Regional Weather Roundup
Issued by NWS

Home | Current Version | Previous Version | Text Only | Print | Product List | Glossary On
Versions: 1 2 3 4 5 6 7 8 9 10 11 12 13 14 15 16 17 18 19 20 21 22 23 24 25 26 27 28 29 30 31 32 33 34 35 36 37 38 39 40 41 42 43 44 45 46 47 48 49 50
000
ASUS43 KMPX 190801
RWRMN
WEATHER ROUNDUP FOR MINNESOTA
NATIONAL WEATHER SERVICE TWIN CITIES/CHANHASSEN MN
300 AM CDT SUN APR 19 2015


NOTE: "FAIR" INDICATES FEW OR NO CLOUDS BELOW 12,000 FEET WITH NO
SIGNIFICANT WEATHER AND/OR OBSTRUCTIONS TO VISIBILITY. N/A MEANS
CURRENT SKY AND/OR WEATHER CONDITIONS ARE NOT AVAILABLE.

MNZ060>063-068>070-190900-
   Twin Cities Metro

CITY           SKY/WX    TMP DP  RH WIND       PRES   REMARKS
TWIN CITIES    CLOUDY    52  40  63 E15       29.80F
ST PAUL        CLOUDY    50  39  66 SE12      29.82F
CRYSTAL        CLOUDY    52  40  63 E12       29.79F
BLAINE         CLOUDY    50  41  71 E12G17    29.80F
LAKEVILLE      LGT RAIN  48  41  76 SE8       29.80F
EDEN PRAIRIE   CLOUDY    52  40  63 SE15G22   29.78F
SOUTH ST PAUL  CLOUDY    51  38  60 SE8       29.81F
LAKE ELMO      CLOUDY    48  39  71 SE7G17    29.82F
$$
MNZ001>005-007-008-013>017-022>024-027-028-190900-
   Northwest Minnesota

CITY           SKY/WX    TMP DP  RH WIND       PRES   REMARKS
BEMIDJI        DRIZZLE   41  38  91 E7        29.82F
HALLOCK        LGT RAIN  54  34  47 SW7       29.77F
ROSEAU         CLOUDY    52  34  50 S9G17     29.79F
WARROAD        CLOUDY    48  36  61 S10       29.80F
THIEF RVR FALL CLOUDY    54  34  47 S5        29.80F
CROOKSTON      LGT RAIN  52  45  76 SW9       29.80F
FOSSTON        CLOUDY    50  34  53 SE7       29.80F
DETROIT LAKES  LGT RAIN  46  45  93 E13       29.78F
MOORHEAD       LGT RAIN  52  48  87 CALM      29.78F
PARK RAPIDS    LGT RAIN  44  41  89 E7        29.81F
MAHNOMEN       DRIZZLE   49  41  74 SE7       29.79F
$$
MNZ006-009>011-018-025>026-190900-
   North Central Minnesota

CITY           SKY/WX    TMP DP  RH WIND       PRES   REMARKS
BAUDETTE       CLOUDY    46  29  51 SE8       29.83F
FLAG ISLAND    CLOUDY    45  28  53 SE8       29.80F
INTL FALLS     CLOUDY    43  23  45 E7        29.86F
WASKISH        CLOUDY    46  30  53 CALM      29.83F
BIG FORK       CLOUDY    45  27  49 SE6       29.87F
LONGVILLE      RAIN      39  37  93 E3        29.84F
GRAND RAPIDS   CLOUDY    37  30  75 E6        29.86F
ORR            CLOUDY    43  19  39 SE7       29.86F
COOK           CLOUDY    45  25  45 SE8       29.90F
WALKER         RAIN      40  39  95 E5        29.84F
$$
MNZ012-019>021-037-190900-
   Northeast Minnesota

CITY           SKY/WX    TMP DP  RH WIND       PRES   REMARKS
DULUTH         RAIN      38  33  82 E14       29.91F
ELY            CLOUDY    43  23  45 SE7       29.92F
HIBBING        LGT RAIN  40  30  67 SE6       29.90F
EVELETH        LGT RAIN  43  28  56 SE8       29.93S
DULUTH HARBOR  RAIN      37  36  93 E18       29.96F
TWO HARBORS    LGT RAIN  41  34  75 NE5       29.95F
SILVER BAY     CLOUDY    39  28  65 NE12      29.97F
GRAND MARAIS     N/A     41  26  55 NE14G22   30.02F
G MARAIS ARPRT CLOUDY    37  21  52 E8        30.00F
$$
MNZ029>031-032-039>041-046>048-054>057-064-190900-
   West Central Minnesota

CITY           SKY/WX    TMP DP  RH WIND       PRES   REMARKS
FERGUS FALLS   RAIN      46  46 100 E13G18    29.74F
WHEATON        CLOUDY    46  45  93 N5        29.73F
MORRIS         CLOUDY    54  54 100 SE12      29.69F FOG
ALEXANDRIA     LGT RAIN  46  44  93 E16       29.74F FOG
ELBOW LAKE     LGT RAIN  46  46  98 E15       29.72F
WADENA         MIX PCPN  43  43 100 E9        29.78F
GLENWOOD       DRIZZLE   48  46  93 E13       29.74F
APPLETON       DRIZZLE   55  54  94 SW6       29.70F
BENSON         DRIZZLE   54  52  94 S13       29.71F
ORTONVILLE     CLOUDY    52  48  87 CALM      29.70F FOG
MADISON        RAIN      52  50  93 NW3       29.71F
WILLMAR        LGT RAIN  54  54 100 SE14      29.75F
$$
MNZ033>034-036-042>043-049>051-058-059-190900-
   Central Minnesota

CITY           SKY/WX    TMP DP  RH WIND       PRES   REMARKS
ST CLOUD       LGT RAIN  48  45  89 E6        29.79F
SAUK CENTRE    DRIZZLE   47  46  96 E9        29.76F
PAYNESVILLE    LGT RAIN  48  47  97 E13       29.76F
AITKIN         MIX PCPN  39  34  81 CALM      29.82F
PINE RIVER     HVY RAIN  39  37  93 E6        29.87F
BRAINERD       RAIN      42  40  92 VRB6      29.82F FOG
STAPLES        LGT RAIN  43  43 100 E5        29.79F
LONG PRAIRIE   CLOUDY    43  41  93 E10       29.77F
LITTLE FALLS   LGT RAIN  45  41  87 E8        29.79F
LITCHFIELD     DRIZZLE   52  52 100 SE12      29.77F
BUFFALO        CLOUDY    51  41  67 SE8       29.79F
MAPLE LAKE     DRIZZLE   51  46  83 E7        29.80F
$$
MNZ037-044-045-052-053-190900-
   East Central Minnesota

CITY           SKY/WX    TMP DP  RH WIND       PRES   REMARKS
PRINCETON      DRIZZLE   48  43  81 E7        29.81S
MORA           LGT RAIN  41  37  87 E8        29.83F
CAMBRIDGE      CLOUDY    48  37  66 E12       29.78F
RUSH CITY      CLOUDY    44  39  81 E10       29.82F
MOOSE LAKE     RAIN      36  34  93 CALM      29.85F
HINCKLEY       LGT RAIN  43  41  93 E9        29.83F
CLOQUET        RAIN      36  34  93 E13       29.89F
MCGREGOR       CLOUDY    37  36  93 E7        29.85F
$$
MNZ071>073-080-081-089-090-097-098-190900-
   Southwest Minnesota

CITY           SKY/WX    TMP DP  RH WIND       PRES   REMARKS
MONTEVIDEO     CLOUDY    55  55 100 SW9       29.72F FOG
GRANITE FALLS  RAIN      55  54  97 SE12      29.74F
CANBY          CLOUDY    56  54  93 SW5       29.72F
MARSHALL       CLOUDY    55  50  82 S10       29.72F
REDWOOD FALLS  LGT RAIN  55  53  93 S13       29.74F
OLIVIA         DRIZZLE   52  50  93 SE10      29.74F
PIPESTONE      CLOUDY    55  54  94 S10       29.73S FOG
WINDOM         CLOUDY    55  54  94 SE10      29.76F
WORTHINGTON    CLOUDY    54  50  87 S9        29.76S
JACKSON        CLOUDY    55  54  94 SE7       29.77S FOG
TRACY          CLOUDY    55  54  95 S8        29.74F
SLAYTON        CLOUDY    53  53 100 S9        29.75S FOG
$$
MNZ065>067-074>077-082>085-091>093-190900-
   South Central Minnesota

CITY           SKY/WX    TMP DP  RH WIND       PRES   REMARKS
MANKATO        CLOUDY    55  46  71 SE12      29.77F
NEW ULM        LGT RAIN  54  54 100 S5        29.75F
ST JAMES       DRIZZLE   55  54  94 SE6       29.77F
FAIRMONT       CLOUDY    55  45  67 S5        29.76F
GLENCOE        DRIZZLE   53  49  87 SE8       29.77F
FARIBAULT      DRIZZLE   54  45  71 E9        29.79F
OWATONNA       CLOUDY    54  45  71 SE14      29.79F
ALBERT LEA     CLOUDY    55  48  76 SE13      29.79F
$$
MNZ078>079-086>088-094>096-190900-
   Southeast Minnesota

CITY           SKY/WX    TMP DP  RH WIND       PRES   REMARKS
ROCHESTER      LGT RAIN  50  45  83 SE14      29.83F
RED WING       DRIZZLE   52  37  58 SE10      29.82S
STANTON        CLOUDY    53  42  66 SE12G20   29.78F
DODGE CENTER   CLOUDY    52  46  82 SE17G23   29.80F
WINONA         CLOUDY    52  36  54 SE10      29.85F
AUSTIN         CLOUDY    52  45  76 SE16      29.79F
PRESTON        CLOUDY    50  43  77 SE8       29.84S
$$
ABBREVIATIONS USED IN REMARKS
   TC - TEMPERATURES IN CELSIUS
  WCI - WIND CHILL INDEX
   HX - HEAT INDEX
  VSB - VISIBILITY
$$


USA.gov is the U.S. government's official web portal to all federal, state and local government web resources and services.